EN

Hourly Weather Almirante

Today, 17 January, Sunday

Time Temperature Precipitation Wind Pressure Humidity
00:00 +25°C° 0.1 mm 2 mps 756 mmHg 89%
01:00 +25°C° 0.1 mm 1 mps 756 mmHg 89%
02:00 +24°C° 0 mm 1 mps 755 mmHg 89%
03:00 +24°C° 0 mm 1 mps 755 mmHg 89%
04:00 +23°C° 0 mm 1 mps 754 mmHg 89%
05:00 +23°C° 0.1 mm 2 mps 755 mmHg 87%
06:00 +23°C° 0.1 mm 2 mps 755 mmHg 86%
07:00 +23°C° 0.1 mm 2 mps 755 mmHg 84%
08:00 +25°C° 0 mm 2 mps 756 mmHg 77%
09:00 +27°C° 0 mm 1 mps 756 mmHg 69%
10:00 +29°C° 0 mm 1 mps 756 mmHg 61%
11:00 +30°C° 0 mm 1 mps 756 mmHg 61%
12:00 +30°C° 0 mm 2 mps 756 mmHg 60%
13:00 +31°C° 0 mm 2 mps 755 mmHg 60%
14:00 +31°C° 0 mm 2 mps 755 mmHg 62%
15:00 +30°C° 0 mm 2 mps 754 mmHg 64%
16:00 +30°C° 0 mm 2 mps 753 mmHg 66%
17:00 +29°C° 0 mm 2 mps 753 mmHg 73%
18:00 +27°C° 0 mm 2 mps 754 mmHg 80%
19:00 +26°C° 0 mm 1 mps 754 mmHg 87%
20:00 +26°C° 0 mm 2 mps 755 mmHg 87%
21:00 +25°C° 0 mm 2 mps 755 mmHg 87%
22:00 +25°C° 0 mm 2 mps 756 mmHg 86%
23:00 +25°C° 0 mm 2 mps 756 mmHg 84%

Tomorrow, 18 January, Monday

Time Temperature Precipitation Wind Pressure Humidity
00:00 +25°C° 0 mm 2 mps 756 mmHg 82%
01:00 +24°C° 0 mm 2 mps 756 mmHg 79%
02:00 +24°C° 0 mm 2 mps 755 mmHg 78%
03:00 +24°C° 0 mm 2 mps 755 mmHg 76%
04:00 +24°C° 0 mm 2 mps 754 mmHg 75%
05:00 +24°C° 0 mm 2 mps 755 mmHg 74%
06:00 +24°C° 0 mm 2 mps 755 mmHg 73%
07:00 +24°C° 0 mm 2 mps 756 mmHg 73%
08:00 +26°C° 0 mm 2 mps 756 mmHg 69%
09:00 +28°C° 0 mm 2 mps 756 mmHg 65%
10:00 +29°C° 0 mm 2 mps 757 mmHg 61%
11:00 +29°C° 0.3 mm 2 mps 756 mmHg 65%
12:00 +29°C° 0.3 mm 3 mps 756 mmHg 69%
13:00 +29°C° 0.3 mm 3 mps 756 mmHg 73%
14:00 +29°C° 0.9 mm 3 mps 755 mmHg 77%
15:00 +28°C° 0.9 mm 2 mps 754 mmHg 81%
16:00 +28°C° 0.9 mm 2 mps 754 mmHg 86%
17:00 +27°C° 0.2 mm 2 mps 754 mmHg 87%
18:00 +26°C° 0.2 mm 1 mps 755 mmHg 89%
19:00 +26°C° 0.2 mm 1 mps 755 mmHg 91%
20:00 +25°C° 0.1 mm 1 mps 755 mmHg 91%
21:00 +25°C° 0.1 mm 2 mps 756 mmHg 90%
22:00 +24°C° 0.1 mm 2 mps 756 mmHg 90%
23:00 +24°C° 0.1 mm 2 mps 756 mmHg 87%

Day after tomorrow, 19 January, Tuesday

Time Temperature Precipitation Wind Pressure Humidity
00:00 +24°C° 0.1 mm 2 mps 756 mmHg 84%
01:00 +23°C° 0.1 mm 2 mps 756 mmHg 82%
02:00 +23°C° 0.1 mm 2 mps 756 mmHg 80%
03:00 +24°C° 0.1 mm 2 mps 755 mmHg 77%
04:00 +24°C° 0.1 mm 2 mps 755 mmHg 75%
05:00 +24°C° 0 mm 2 mps 755 mmHg 75%
06:00 +24°C° 0 mm 1 mps 756 mmHg 75%
07:00 +24°C° 0 mm 1 mps 756 mmHg 75%
08:00 +26°C° 0 mm 2 mps 756 mmHg 70%
09:00 +27°C° 0 mm 2 mps 756 mmHg 66%
10:00 +29°C° 0 mm 2 mps 757 mmHg 61%
11:00 +30°C° 0 mm 2 mps 756 mmHg 61%
12:00 +30°C° 0 mm 2 mps 756 mmHg 61%
13:00 +30°C° 0 mm 3 mps 755 mmHg 61%
14:00 +29°C° 0.1 mm 2 mps 755 mmHg 68%
15:00 +28°C° 0.1 mm 2 mps 754 mmHg 76%
16:00 +27°C° 0.1 mm 2 mps 754 mmHg 83%
17:00 +27°C° 0.5 mm 2 mps 754 mmHg 84%
18:00 +27°C° 0.5 mm 2 mps 754 mmHg 86%
19:00 +26°C° 0.5 mm 2 mps 755 mmHg 88%
20:00 +26°C° 0.5 mm 2 mps 755 mmHg 88%
21:00 +26°C° 0.5 mm 2 mps 755 mmHg 88%
22:00 +25°C° 0.5 mm 2 mps 756 mmHg 88%
23:00 +25°C° 0.5 mm 2 mps 756 mmHg 89%

20 January, Wednesday

Time Temperature Precipitation Wind Pressure Humidity
00:00 +25°C° 0.5 mm 2 mps 755 mmHg 90%
01:00 +25°C° 0.5 mm 2 mps 755 mmHg 91%
02:00 +25°C° 0.6 mm 2 mps 755 mmHg 92%
03:00 +25°C° 0.6 mm 2 mps 755 mmHg 92%
04:00 +25°C° 0.6 mm 2 mps 754 mmHg 92%
05:00 +25°C° 0.7 mm 2 mps 755 mmHg 92%
06:00 +25°C° 0.7 mm 2 mps 755 mmHg 91%
07:00 +25°C° 0.7 mm 1 mps 755 mmHg 90%
08:00 +26°C° 0.4 mm 2 mps 755 mmHg 86%
09:00 +27°C° 0.4 mm 2 mps 756 mmHg 81%
10:00 +29°C° 0.4 mm 2 mps 756 mmHg 76%
11:00 +29°C° 0.3 mm 2 mps 756 mmHg 75%
12:00 +30°C° 0.3 mm 2 mps 755 mmHg 74%
13:00 +30°C° 0.3 mm 2 mps 755 mmHg 72%
14:00 +30°C° 0.6 mm 2 mps 754 mmHg 76%
15:00 +29°C° 0.6 mm 3 mps 754 mmHg 79%
16:00 +29°C° 0.6 mm 3 mps 753 mmHg 82%
17:00 +28°C° 1 mm 3 mps 754 mmHg 85%
18:00 +27°C° 1 mm 3 mps 754 mmHg 88%
19:00 +26°C° 1 mm 3 mps 754 mmHg 91%
20:00 +26°C° 1.3 mm 3 mps 755 mmHg 91%
21:00 +26°C° 1.3 mm 2 mps 755 mmHg 91%
22:00 +25°C° 1.3 mm 2 mps 756 mmHg 92%
23:00 +25°C° 0.6 mm 2 mps 756 mmHg 91%

21 January, Thursday

Time Temperature Precipitation Wind Pressure Humidity
00:00 +25°C° 0.6 mm 2 mps 755 mmHg 90%
01:00 +25°C° 0.6 mm 2 mps 755 mmHg 89%
02:00 +25°C° 0.3 mm 2 mps 755 mmHg 89%
03:00 +25°C° 0.3 mm 2 mps 755 mmHg 88%
04:00 +25°C° 0.3 mm 2 mps 754 mmHg 88%
05:00 +25°C° 0.4 mm 2 mps 755 mmHg 88%
06:00 +25°C° 0.4 mm 2 mps 755 mmHg 88%
07:00 +25°C° 0.4 mm 2 mps 755 mmHg 88%
08:00 +26°C° 0.2 mm 2 mps 756 mmHg 84%
09:00 +27°C° 0.2 mm 2 mps 756 mmHg 81%
10:00 +28°C° 0.2 mm 2 mps 756 mmHg 77%
11:00 +29°C° 0.1 mm 2 mps 756 mmHg 72%
12:00 +30°C° 0.1 mm 2 mps 755 mmHg 67%
13:00 +31°C° 0.1 mm 2 mps 755 mmHg 62%
14:00 +30°C° 0.2 mm 3 mps 754 mmHg 66%
15:00 +30°C° 0.2 mm 3 mps 754 mmHg 71%
16:00 +29°C° 0.2 mm 3 mps 753 mmHg 76%
17:00 +28°C° 0.7 mm 3 mps 753 mmHg 81%
18:00 +27°C° 0.7 mm 2 mps 754 mmHg 86%
19:00 +26°C° 0.7 mm 2 mps 754 mmHg 90%
20:00 +26°C° 0.4 mm 2 mps 754 mmHg 90%
21:00 +25°C° 0.4 mm 2 mps 755 mmHg 90%
22:00 +25°C° 0.4 mm 1 mps 755 mmHg 90%
23:00 +25°C° 0.2 mm 1 mps 755 mmHg 90%

22 January, Friday

Time Temperature Precipitation Wind Pressure Humidity
00:00 +25°C° 0.2 mm 1 mps 755 mmHg 89%
01:00 +25°C° 0.2 mm 1 mps 755 mmHg 89%
02:00 +25°C° 0 mm 1 mps 755 mmHg 89%
03:00 +25°C° 0 mm 1 mps 754 mmHg 89%
04:00 +24°C° 0 mm 1 mps 754 mmHg 89%
05:00 +25°C° 0 mm 1 mps 754 mmHg 88%
06:00 +25°C° 0 mm 1 mps 755 mmHg 87%
07:00 +25°C° 0 mm 1 mps 755 mmHg 86%
08:00 +26°C° 0.2 mm 1 mps 756 mmHg 81%
09:00 +28°C° 0.2 mm 1 mps 756 mmHg 76%
10:00 +29°C° 0.2 mm 1 mps 756 mmHg 71%
11:00 +29°C° 0.5 mm 1 mps 756 mmHg 76%
12:00 +28°C° 0.5 mm 1 mps 755 mmHg 80%
13:00 +28°C° 0.5 mm 1 mps 755 mmHg 84%
14:00 +28°C° 0.3 mm 1 mps 754 mmHg 81%
15:00 +29°C° 0.3 mm 1 mps 754 mmHg 79%
16:00 +29°C° 0.3 mm 1 mps 754 mmHg 76%
17:00 +28°C° 0.2 mm 1 mps 754 mmHg 81%
18:00 +27°C° 0.2 mm 1 mps 754 mmHg 86%
19:00 +26°C° 0.2 mm 1 mps 754 mmHg 90%
20:00 +26°C° 0.1 mm 1 mps 755 mmHg 90%
21:00 +25°C° 0.1 mm 1 mps 755 mmHg 90%
22:00 +25°C° 0.1 mm 1 mps 756 mmHg 90%
23:00 +25°C° 0 mm 2 mps 756 mmHg 90%
Show more